Weather History for K04W - October, 2011

Change the Weather History Date:

Saturday, October 15, 2011

  Actual Average (KJMR) Record (KJMR)
Temperature  
Mean Temperature 48 °F -  
Max Temperature 55 °F 55 °F 84 °F (1947)
Min Temperature 42 °F 31 °F 15 °F (1937)
Degree Days  
Heating Degree Days 16    
Moisture  
Dew Point 36 °F    
Average Humidity 60    
Maximum Humidity 81    
Minimum Humidity 44    
Precipitation  
Precipitation 0.00 in - - ()
Sea Level Pressure  
Sea Level Pressure 29.77 in    
Wind  
Wind Speed 11 mph (West)    
Max Wind Speed 18 mph    
Max Gust Speed 29 mph    
Visibility 10 miles    
Events      
Averages and records for this station are not official NWS values.
T = Trace of Precipitation, MM = Missing Value Source: NWS Daily Summary

Daily Weather History Graph

Daily Weather History Graph

Search for Another Location

Airport or City:

Trip Planner

Search our weather history database for the weather conditions in past years. The results will help you decide how hot, cold, wet, or windy it might be!

Date:

Astronomy

Oct. 15, 2011 Rise Set
Actual Time 7:28 AM CDT 6:25 PM CDT
Civil Twilight 6:58 AM CDT 6:55 PM CDT
Nautical Twilight 6:23 AM CDT 7:30 PM CDT
Astronomical Twilight 5:48 AM CDT 8:05 PM CDT
Moon 8:09 PM CDT (10/15) 11:06 AM CDT (10/15)
Length of Visible Light 11h 57m
Length of Day
10h 57m
Waning Gibbous, 89% of the Moon is Illuminated
Oct 15
Waning Gibbous
Oct 19
Last Quarter
Oct 26
New
Nov 2
First Quarter
Nov 10
Full

Hourly Weather History & Observations

Time (CDT) Temp. Windchill Dew Point Humidity Pressure Visibility Wind Dir Wind Speed Gust Speed Precip Events Conditions
12:15 AM 50.0 °F - 35.6 °F 58% 29.72 in 10.0 mi WNW 12.7 mph 19.6 mph N/A   Overcast
12:35 AM 50.0 °F - 35.6 °F 58% 29.72 in 10.0 mi WNW 9.2 mph 18.4 mph N/A   Overcast
12:55 AM 50.0 °F - 37.4 °F 62% 29.73 in 10.0 mi WNW 11.5 mph 17.3 mph N/A   Overcast
1:15 AM 50.0 °F - 35.6 °F 58% 29.73 in 10.0 mi WNW 11.5 mph 18.4 mph N/A   Overcast
1:35 AM 50.0 °F - 37.4 °F 62% 29.73 in 10.0 mi WNW 9.2 mph 16.1 mph N/A   Overcast
1:55 AM 50.0 °F - 37.4 °F 62% 29.73 in 10.0 mi WNW 13.8 mph 23.0 mph N/A   Overcast
2:15 AM 50.0 °F - 35.6 °F 58% 29.73 in 10.0 mi WNW 13.8 mph 19.6 mph N/A   Overcast
2:35 AM 50.0 °F - 35.6 °F 58% 29.74 in 10.0 mi WNW 12.7 mph - N/A   Overcast
2:55 AM 48.2 °F - 35.6 °F 62% 29.74 in 10.0 mi WNW 8.1 mph 19.6 mph N/A   Scattered Clouds
3:15 AM 48.2 °F - 33.8 °F 58% 29.74 in 10.0 mi WNW 10.4 mph 18.4 mph N/A   Clear
3:35 AM 48.2 °F - 33.8 °F 58% 29.74 in 10.0 mi WNW 9.2 mph 19.6 mph N/A   Clear
3:55 AM 46.4 °F 41.1 °F 35.6 °F 66% 29.75 in 10.0 mi WNW 11.5 mph 16.1 mph N/A   Clear
4:15 AM 46.4 °F 42.9 °F 35.6 °F 66% 29.75 in 10.0 mi WNW 6.9 mph - N/A   Clear
4:55 AM 46.4 °F 41.9 °F 35.6 °F 66% 29.76 in 10.0 mi WNW 9.2 mph 16.1 mph N/A   Clear
5:15 AM 46.4 °F 42.4 °F 35.6 °F 66% 29.77 in 10.0 mi WNW 8.1 mph - N/A   Clear
5:35 AM 46.4 °F 43.5 °F 35.6 °F 66% 29.77 in 10.0 mi WNW 5.8 mph - N/A   Clear
5:55 AM 44.6 °F 40.7 °F 37.4 °F 76% 29.77 in 10.0 mi West 6.9 mph - N/A   Scattered Clouds
6:15 AM 44.6 °F 41.4 °F 37.4 °F 76% 29.77 in 10.0 mi WNW 5.8 mph - N/A   Scattered Clouds
6:35 AM 44.6 °F 40.7 °F 37.4 °F 76% 29.78 in 10.0 mi WNW 6.9 mph - N/A   Scattered Clouds
6:55 AM 44.6 °F 41.4 °F 37.4 °F 76% 29.78 in 10.0 mi West 5.8 mph - N/A   Clear
7:15 AM 44.6 °F 40.2 °F 37.4 °F 76% 29.78 in 10.0 mi West 8.1 mph - N/A   Clear
7:35 AM 42.8 °F 39.3 °F 37.4 °F 81% 29.78 in 10.0 mi West 5.8 mph - N/A   Clear
7:55 AM 42.8 °F 38.6 °F 37.4 °F 81% 29.79 in 10.0 mi West 6.9 mph - N/A   Clear
8:15 AM 42.8 °F 38.0 °F 37.4 °F 81% 29.79 in 10.0 mi West 8.1 mph - N/A   Clear
8:35 AM 44.6 °F 40.2 °F 37.4 °F 76% 29.79 in 10.0 mi West 8.1 mph - N/A   Clear
8:55 AM 44.6 °F 40.2 °F 39.2 °F 81% 29.79 in 10.0 mi WSW 8.1 mph - N/A   Clear
9:15 AM 46.4 °F 42.4 °F 41.0 °F 81% 29.79 in 10.0 mi WSW 8.1 mph - N/A   Clear
9:35 AM 46.4 °F 41.5 °F 41.0 °F 81% 29.79 in 10.0 mi West 10.4 mph - N/A   Clear
9:55 AM 48.2 °F - 39.2 °F 71% 29.80 in 10.0 mi West 13.8 mph - N/A   Scattered Clouds
10:15 AM 48.2 °F - 41.0 °F 76% 29.80 in 10.0 mi West 9.2 mph - N/A   Mostly Cloudy
10:35 AM 50.0 °F - 37.4 °F 62% 29.80 in 10.0 mi West 10.4 mph 23.0 mph N/A   Mostly Cloudy
10:55 AM 50.0 °F - 35.6 °F 58% 29.80 in 10.0 mi West 16.1 mph 23.0 mph N/A   Mostly Cloudy
11:15 AM 50.0 °F - 35.6 °F 58% 29.80 in 10.0 mi NW 12.7 mph 20.7 mph N/A   Mostly Cloudy
11:35 AM 51.8 °F - 37.4 °F 58% 29.80 in 10.0 mi West 15.0 mph 21.9 mph N/A   Mostly Cloudy
11:55 AM 51.8 °F - 37.4 °F 58% 29.79 in 10.0 mi West 13.8 mph 24.2 mph N/A   Mostly Cloudy
12:15 PM 51.8 °F - 35.6 °F 54% 29.79 in 10.0 mi West 15.0 mph 23.0 mph N/A   Scattered Clouds
12:35 PM 51.8 °F - 35.6 °F 54% 29.79 in 10.0 mi WNW 12.7 mph 21.9 mph N/A   Mostly Cloudy
1:15 PM 53.6 °F - 35.6 °F 51% 29.78 in 10.0 mi WNW 15.0 mph 24.2 mph N/A   Mostly Cloudy
1:35 PM 53.6 °F - 35.6 °F 51% 29.78 in 10.0 mi West 17.3 mph 28.8 mph N/A   Mostly Cloudy
1:55 PM 53.6 °F - 35.6 °F 51% 29.77 in 10.0 mi West 13.8 mph 23.0 mph N/A   Mostly Cloudy
2:15 PM 53.6 °F - 33.8 °F 47% 29.77 in 10.0 mi West 13.8 mph 24.2 mph N/A   Mostly Cloudy
2:35 PM 55.4 °F - 35.6 °F 47% 29.76 in 10.0 mi West 17.3 mph - N/A   Mostly Cloudy
2:55 PM 55.4 °F - 33.8 °F 44% 29.76 in 10.0 mi WNW 18.4 mph 26.5 mph N/A   Mostly Cloudy
3:15 PM 55.4 °F - 35.6 °F 47% 29.76 in 10.0 mi WNW 13.8 mph 24.2 mph N/A   Mostly Cloudy
3:35 PM 55.4 °F - 33.8 °F 44% 29.76 in 10.0 mi West 12.7 mph 27.6 mph N/A   Scattered Clouds
3:55 PM 55.4 °F - 33.8 °F 44% 29.76 in 10.0 mi West 17.3 mph 24.2 mph N/A   Scattered Clouds
4:15 PM 55.4 °F - 33.8 °F 44% 29.76 in 10.0 mi West 16.1 mph 20.7 mph N/A   Scattered Clouds
4:35 PM 55.4 °F - 33.8 °F 44% 29.75 in 10.0 mi West 11.5 mph 19.6 mph N/A   Clear
4:55 PM 53.6 °F - 33.8 °F 47% 29.75 in 10.0 mi West 12.7 mph 17.3 mph N/A   Clear
5:15 PM 53.6 °F - 33.8 °F 47% 29.75 in 10.0 mi West 8.1 mph 18.4 mph N/A   Clear
5:35 PM 51.8 °F - 33.8 °F 50% 29.76 in 10.0 mi West 10.4 mph - N/A   Clear
5:55 PM 51.8 °F - 33.8 °F 50% 29.76 in 10.0 mi West 8.1 mph - N/A   Clear
6:15 PM 51.8 °F - 33.8 °F 50% 29.75 in 10.0 mi West 10.4 mph - N/A   Clear
6:35 PM 51.8 °F - 33.8 °F 50% 29.76 in 10.0 mi West 9.2 mph - N/A   Clear
6:55 PM 50.0 °F - 33.8 °F 54% 29.77 in 10.0 mi West 12.7 mph 19.6 mph N/A   Clear
7:15 PM 51.8 °F - 33.8 °F 50% 29.77 in 10.0 mi West 10.4 mph - N/A   Clear
7:35 PM 51.8 °F - 35.6 °F 54% 29.78 in 10.0 mi West 10.4 mph - N/A   Clear
7:55 PM 51.8 °F - 35.6 °F 54% 29.77 in 10.0 mi West 10.4 mph 16.1 mph N/A   Clear
8:15 PM 51.8 °F - 35.6 °F 54% 29.78 in 10.0 mi West 11.5 mph - N/A   Scattered Clouds
8:35 PM 51.8 °F - 35.6 °F 54% 29.77 in 10.0 mi West 10.4 mph - N/A   Mostly Cloudy
8:55 PM 50.0 °F - 35.6 °F 58% 29.77 in 10.0 mi West 9.2 mph - N/A   Mostly Cloudy
9:15 PM 50.0 °F - 35.6 °F 58% 29.77 in 10.0 mi West 6.9 mph - N/A   Mostly Cloudy
9:35 PM 50.0 °F - 35.6 °F 58% 29.78 in 10.0 mi West 9.2 mph - N/A   Mostly Cloudy
9:55 PM 50.0 °F - 35.6 °F 58% 29.79 in 10.0 mi West 6.9 mph - N/A   Scattered Clouds
10:15 PM 50.0 °F - 35.6 °F 58% 29.79 in 10.0 mi West 6.9 mph - N/A   Scattered Clouds
10:35 PM 46.4 °F 42.9 °F 35.6 °F 66% 29.79 in 10.0 mi West 6.9 mph - N/A   Clear
11:15 PM 46.4 °F 45.2 °F 37.4 °F 71% 29.79 in 10.0 mi West 3.5 mph - N/A   Overcast
11:35 PM 46.4 °F 43.5 °F 37.4 °F 71% 29.79 in 10.0 mi WSW 5.8 mph - N/A   Overcast
11:55 PM 46.4 °F 43.5 °F 37.4 °F 71% 29.79 in 10.0 mi West 5.8 mph - N/A   Overcast